This demonstration page uses our WeatherBlox Daily Observations layout. Learn more.

Left ArrowRight Arrow

44.89941, -97.11507

Hourly Observations for September 15, 2018

Temp ( °F °C ) Dew Point ( °F °C ) Humidity (%) Winds ( mph kmh ) Pressure ( in mb ) Visibility ( mi km ) Precip ( " mm )
12:53 am 00:53 Mostly Clear 70 21.1 68 20 93 93 ESE 5 7 29.98 1015 10 16 0.00 0.00
1:53 am 01:53 Clear 70 21.1 68 20 93 93 SSE 8 13 29.98 1015 10 16 0.00 0.00
2:53 am 02:53 Clear 70 21.1 69 20.6 97 97 S 9 15 29.98 1015 10 16 0.00 0.00
3:53 am 03:53 Clear 69 20.6 68 20 96 96 SSE 6 9 29.99 1016 10 16 0.00 0.00
4:53 am 04:53 Clear 66 18.9 66 18.9 100 100 Calm 30.00 1016 7 11 0.00 0.00
5:53 am 05:53 Mostly Cloudy with Mist and Fog 66 18.9 66 18.9 100 100 Calm 30.02 1017 4 6 0.00 0.00
5:57 am 05:57 Mostly Cloudy with Mist and Fog 65 18.3 65 18.3 100 100 Calm 29.97 1015 2 3 0.00 0.00
6:01 am 06:01 Mostly Cloudy with Mist and Fog 65 18.3 65 18.3 100 100 Calm 29.97 1015 1 1 0.00 0.00
6:22 am 06:22 Mostly Clear with Fog 64 17.8 64 17.8 100 100 NE 3 6 29.97 1015 0 0 0.00 0.00
6:29 am 06:29 Clear with Fog 64 17.8 64 17.8 100 100 ENE 3 6 29.97 1015 1 1 0.00 0.00
6:39 am 06:39 Mostly Clear with Mist and Fog 65 18.3 65 18.3 100 100 E 5 7 29.97 1015 2 2 0.00 0.00
6:41 am 06:41 Mostly Clear with Mist and Fog 66 18.9 66 18.9 100 100 E 6 9 29.97 1015 3 5 0.00 0.00
6:53 am 06:53 Partly Cloudy 67 19.4 67 19.4 100 100 E 5 7 30.02 1017 10 16 0.00 0.00
7:53 am 07:53 Partly Cloudy 68 20 67 19.4 96 96 E 6 9 30.04 1017 10 16 0.00 0.00
8:53 am 08:53 Mostly Sunny 69 20.6 68 20 96 96 E 7 11 30.04 1017 10 16 0.00 0.00
9:40 am 09:40 Mostly Cloudy 71 21.7 69 20.6 94 94 E 6 9 29.97 1015 10 16 0.00 0.00
9:53 am 09:53 Cloudy 72 22.2 69 20.6 91 91 E 7 11 30.04 1017 10 16 0.00 0.00
10:24 am 10:24 Cloudy 74 23.3 70 21.1 88 88 E 7 11 29.97 1015 10 16 0.00 0.00
10:53 am 10:53 Mostly Cloudy 74 23.3 70 21.1 88 88 E 7 11 30.04 1017 10 16 0.00 0.00
11:21 am 11:21 Partly Cloudy 77 25 70 21.1 79 79 VRB 7 11 29.97 1015 10 16 0.00 0.00
11:53 am 11:53 Sunny 80 26.7 71 21.7 74 74 SE 10 17 30.01 1016 10 16 0.00 0.00
12:53 pm 12:53 Sunny 84 28.9 70 21.1 63 63 SSE 13 20 29.99 1016 10 16 0.00 0.00
1:53 pm 13:53 Sunny 88 31.1 70 21.1 55 55 S 16 26 29.98 1015 10 16 0.00 0.00
2:53 pm 14:53 Sunny 91 32.8 66 18.9 44 44 S 18 30 29.96 1014 10 16 0.00 0.00
3:53 pm 15:53 Sunny 91 32.8 63 17.2 39 39 S 23 37 29.94 1014 10 16 0.00 0.00
4:53 pm 16:53 Sunny 90 32.2 65 18.3 44 44 S 15 24 29.94 1014 10 16 0.00 0.00
5:53 pm 17:53 Sunny 88 31.1 65 18.3 46 46 S 14 22 29.93 1014 10 16 0.00 0.00
6:53 pm 18:53 Sunny 85 29.4 65 18.3 51 51 SSE 14 22 29.94 1014 10 16 0.00 0.00
7:53 pm 19:53 Clear 81 27.2 66 18.9 61 61 SSE 13 20 29.94 1014 10 16 0.00 0.00
8:53 pm 20:53 Clear 78 25.6 66 18.9 67 67 S 10 17 29.95 1014 10 16 0.00 0.00
9:53 pm 21:53 Clear 75 23.9 66 18.9 74 74 SSE 8 13 29.96 1014 10 16 0.00 0.00
10:53 pm 22:53 Clear 73 22.8 66 18.9 79 79 S 13 20 29.95 1014 10 16 0.00 0.00
11:53 pm 23:53 Clear 72 22.2 66 18.9 82 82 SSE 14 22 29.93 1014 10 16 0.00 0.00

Powered by AerisWeather